Theta_e
347 345 345 339 337 339 339 337 335 333 334 341 341 340 338 339 338 336 335 334 331 330 329 329 328 328 327 327 326 327 327 327 328 329 328 328 328 325
354 352 345 341 337 338 340 339 337 336 331 337 340 340 339 339 338 337 337 336 334 333 332 332 333 331 329 330 331 328 327 327 328 329 329 329 325 324
356 354 352 347 338 337 339 339 339 337 336 336 337 339 339 339 338 338 338 337 335 333 334 335 334 333 333 331 330 327 327 328 328 328 327 325 324 319
357 356 355 354 351 338 336 338 339 339 338 336 337 337 338 339 339 338 338 337 336 336 336 337 335 335 335 332 328 328 330 328 326 326 325 324 321 321
355 356 356 356 354 352 347 338 337 341 340 339 339 337 337 339 339 339 338 337 336 337 337 335 336 337 337 335 329 329 331 329 328 326 324 324 322 324
354 353 353 356 355 355 353 349 346 341 342 341 339 339 339 340 338 337 337 337 337 337 337 337 338 339 336 336 332 330 333 330 330 327 326 324 325 321
353 355 356 356 356 357 355 354 351 349 345 342 341 341 341 341 340 338 337 337 337 336 336 339 340 338 336 335 333 331 331 331 330 329 327 326 313 311
354 352 352 352 353 354 356 357 356 353 347 342 340 339 340 341 342 340 339 338 338 338 338 339 339 338 337 335 333 334 333 332 330 329 326 317 311 311
357 356 356 356 354 354 354 357 358 358 356 351 341 340 340 339 339 340 341 340 340 340 339 339 340 337 336 336 335 334 334 333 331 325 319 313 311 311
358 357 357 357 358 358 358 358 358 358 357 354 351 348 344 343 340 339 339 340 339 340 339 338 337 337 336 336 333 334 332 329 323 318 315 312 311 311
359 358 358 359 359 359 359 358 358 356 357 357 358 357 355 349 346 340 340 339 339 339 337 337 337 336 335 332 332 331 326 323 318 316 314 312 312 311
360 360 360 360 359 360 361 360 358 358 357 356 356 353 352 351 344 341 342 340 338 336 333 336 336 335 332 332 333 326 323 320 317 316 314 313 313 313
361 360 360 359 359 359 359 359 360 360 359 358 355 352 349 348 348 343 341 340 338 335 335 336 335 335 327 323 325 325 322 319 318 316 313 313 313 313
363 362 361 361 360 359 358 358 358 359 359 358 357 352 348 346 345 344 341 340 337 336 334 335 335 333 326 317 317 320 319 318 314 313 313 313 312 311
364 364 363 363 363 361 360 359 355 354 354 349 353 355 352 349 345 342 338 336 337 329 332 335 333 333 326 317 314 314 313 313 312 312 312 310 310 309
367 365 364 364 363 361 360 358 356 353 349 345 347 350 351 349 343 340 337 337 337 335 335 334 332 328 320 319 317 313 311 312 313 311 310 309 308 306
367 363 359 359 359 357 356 354 351 348 347 344 345 345 343 342 338 336 335 336 333 332 332 333 331 319 320 318 314 312 311 313 312 310 309 307 306 305
360 357 355 354 352 352 350 347 345 343 342 341 341 341 340 338 335 333 334 332 331 331 326 320 316 312 312 312 312 311 312 313 311 310 308 306 304 303
357 355 353 351 348 346 344 340 339 339 338 339 338 339 338 337 335 334 332 333 328 325 323 318 314 311 310 309 313 313 313 311 311 308 308 304 303 304
354 351 348 347 345 341 338 337 337 338 338 338 338 338 337 336 334 332 332 329 325 324 323 320 318 314 312 310 314 315 312 311 310 309 306 303 303 306
349 347 345 341 337 336 336 335 334 334 335 335 337 337 336 334 333 332 331 329 326 324 322 322 320 320 315 313 312 314 312 310 310 308 305 303 305 306
337 337 336 336 336 336 335 336 335 334 333 335 336 337 335 334 333 332 331 327 326 326 325 324 323 321 317 312 310 312 313 312 310 306 304 304 304 302
336 336 336 335 335 336 335 334 333 332 333 333 334 334 334 334 333 333 331 330 324 323 323 322 322 322 319 312 311 311 311 310 308 307 305 304 304 303
Wind_Speed
19 19 19 19 16 13 13 13 9 3 4 14 13 26 30 29 25 25 24 22 21 21 19 17 16 15 15 14 13 11 11 13 12 13 11 10 8 10
21 20 23 23 22 19 15 17 18 16 4 10 18 21 26 34 31 30 28 26 25 23 22 19 19 18 17 15 14 13 12 11 10 9 10 6 7 8
26 25 25 23 24 26 22 20 22 20 16 20 16 16 20 33 32 32 30 29 28 27 23 23 23 22 20 19 14 12 11 10 7 6 7 6 5 8
32 31 31 28 27 28 29 29 25 25 23 22 22 19 21 27 33 32 30 31 31 27 24 22 21 20 21 20 18 11 7 9 6 6 6 5 7 9
37 36 36 33 33 32 31 32 32 27 26 26 29 22 22 26 30 33 32 31 30 27 24 23 22 21 23 23 20 15 7 10 7 8 8 8 9 11
39 38 39 39 38 37 36 36 36 35 32 30 30 30 25 27 30 34 31 31 31 28 28 26 23 24 23 23 22 18 12 13 10 12 9 8 10 13
40 41 42 42 42 42 40 40 38 37 31 31 27 29 30 25 27 32 32 32 36 34 30 28 26 25 22 21 22 23 22 17 16 14 9 6 7 7
42 43 45 44 44 46 46 45 42 39 32 26 27 26 32 32 33 32 32 24 13 34 34 26 29 25 19 23 24 21 20 19 18 13 9 5 2 4
41 41 41 41 44 46 47 48 48 49 47 37 34 35 35 36 35 32 31 28 26 16 19 23 31 20 16 18 18 15 18 14 14 12 9 7 3 4
42 41 39 38 37 39 41 42 46 49 52 51 48 47 42 43 39 42 43 38 21 14 12 14 17 18 18 20 17 15 14 15 14 11 11 6 4 5
40 40 38 36 36 36 38 38 38 37 42 47 51 56 56 52 48 38 32 26 12 15 12 22 21 19 17 14 18 16 17 16 13 11 10 7 6 7
37 38 38 40 38 33 37 38 36 34 35 41 46 50 50 53 49 45 39 30 25 9 17 24 19 15 5 15 19 19 18 16 13 12 10 10 10 11
32 32 32 33 34 34 38 40 42 41 38 39 37 38 37 41 49 50 43 39 28 16 18 25 19 19 9 8 17 21 19 17 15 13 11 10 8 7
34 31 31 30 31 32 31 35 38 42 39 32 27 27 28 33 41 44 43 45 38 20 19 32 15 24 13 7 9 16 16 15 13 13 10 10 6 2
38 36 34 32 30 27 25 25 21 23 29 27 25 27 31 35 33 34 32 30 32 7 19 28 22 26 23 12 18 18 18 16 13 13 13 8 3 1
42 43 38 33 29 27 27 27 24 22 20 22 21 23 26 23 19 12 16 27 26 20 27 24 20 18 22 18 21 20 18 10 18 15 9 6 4 2
35 35 31 30 27 24 24 23 20 17 17 18 16 15 12 6 18 19 17 21 16 21 21 17 18 18 17 16 14 20 16 15 18 15 10 8 6 2
21 23 20 20 19 17 14 13 13 12 11 10 4 4 8 24 19 14 18 23 23 25 26 24 25 21 17 11 10 17 16 19 17 12 10 6 5 5
18 20 17 14 12 10 8 7 5 4 3 4 4 7 19 14 11 18 21 22 21 23 29 30 27 25 5 3 10 14 18 18 17 13 6 1 4 6
15 14 13 11 10 8 6 6 5 4 4 3 6 10 12 13 20 19 21 18 20 17 22 27 28 25 20 12 8 16 18 17 15 12 8 7 5 7
12 11 11 11 9 8 7 6 5 5 5 6 9 12 12 15 16 18 21 22 25 23 19 25 29 24 17 13 9 11 20 14 10 13 11 11 11 11
13 12 11 9 8 8 8 6 6 6 7 9 11 13 15 17 19 22 23 23 23 26 27 25 24 23 17 15 15 16 21 19 16 12 9 7 7 6
14 12 10 8 7 8 8 6 6 6 7 11 12 13 14 16 17 19 19 22 23 23 24 21 22 26 23 21 18 17 20 23 22 19 14 11 11 7
Wind_Direction
230 233 231 231 230 230 234 228 206 214 255 237 222 231 231 233 233 229 232 232 231 229 230 234 238 245 252 264 273 282 290 290 285 278 273 285 293 301
235 238 237 236 237 239 241 238 231 229 219 233 241 236 234 230 232 233 235 237 235 238 241 242 245 248 251 258 268 279 289 294 286 275 276 270 282 293
234 237 239 240 239 237 240 245 241 231 226 253 247 241 239 228 232 233 237 239 239 237 239 244 250 253 257 257 251 266 284 295 278 266 268 271 289 295
232 236 240 241 243 242 243 244 245 242 240 246 251 247 240 232 232 234 233 236 238 241 245 251 249 247 250 254 250 244 260 277 273 281 263 284 296 302
236 238 242 242 245 245 245 247 249 251 252 254 260 260 250 236 227 229 232 237 240 242 244 246 249 249 250 245 241 243 250 257 274 283 277 294 295 305
240 242 245 245 247 249 249 250 251 251 251 253 255 256 252 240 231 229 229 232 237 243 245 245 250 254 257 246 245 246 245 254 262 264 273 286 304 308
243 243 245 248 252 252 249 251 251 253 251 248 248 249 243 232 223 229 231 234 236 236 239 246 243 243 240 236 241 253 255 248 249 248 255 267 305 327
239 245 249 251 253 254 254 255 253 249 243 238 239 237 241 236 237 224 225 225 241 240 238 242 253 247 226 228 233 241 259 251 244 235 231 235 280 357
240 243 245 247 251 254 256 255 254 254 253 248 241 240 245 241 236 231 223 224 228 215 209 245 253 229 222 226 223 234 259 243 213 209 211 210 230 266
243 244 244 246 246 248 251 252 256 255 251 250 248 255 251 255 245 237 238 235 217 205 228 236 226 203 213 224 236 226 226 201 195 193 200 204 236 271
244 247 247 248 247 248 250 252 253 254 257 259 260 261 259 257 256 243 226 205 195 184 208 239 221 202 216 230 220 205 189 192 188 189 200 209 245 277
248 250 252 253 252 249 246 248 253 254 255 258 256 257 259 259 253 245 237 216 215 148 231 229 221 190 200 217 208 184 184 186 188 201 208 229 254 281
247 251 253 255 256 256 254 252 254 263 260 259 258 257 255 255 255 247 237 227 221 205 208 224 190 194 197 167 178 180 185 191 201 211 219 241 240 256
245 250 254 255 257 258 256 259 264 264 264 267 268 258 253 247 248 245 233 228 211 200 243 216 201 195 183 132 128 168 184 187 190 190 185 172 178 215
245 249 252 255 259 258 258 263 264 269 273 270 267 267 262 264 258 245 232 216 167 174 229 200 200 194 185 155 146 155 154 162 175 173 165 161 176 281
248 250 251 254 257 255 260 267 277 287 284 281 276 280 280 278 270 236 164 165 173 191 189 184 194 185 180 167 162 161 159 156 162 157 164 149 133 134
246 248 251 253 254 255 262 275 286 295 301 302 292 288 286 261 145 148 157 178 167 152 162 173 175 177 180 174 153 164 162 156 163 158 165 148 143 156
234 235 236 242 246 254 267 282 290 298 294 284 267 235 207 157 163 175 182 169 147 149 154 155 153 136 126 134 168 169 165 160 160 165 161 155 175 202
223 227 225 226 231 235 245 252 281 293 293 265 242 170 161 169 171 162 162 160 153 156 158 163 157 146 113 149 171 177 167 164 163 162 159 180 195 214
208 199 196 199 215 224 212 185 179 194 236 252 226 204 200 186 162 156 152 149 154 159 160 172 171 170 166 174 164 192 193 177 175 174 178 172 192 198
188 190 197 199 194 180 176 189 202 217 222 213 221 211 192 178 173 172 165 170 169 172 171 184 190 188 181 158 142 164 182 193 209 189 187 186 187 200
174 178 171 174 183 191 200 214 212 218 213 205 207 206 199 196 188 184 182 172 178 184 188 192 196 192 182 181 174 177 190 203 196 194 200 212 195 207
163 164 170 184 198 197 197 190 199 207 210 204 204 203 194 191 195 194 192 182 182 188 190 185 183 184 192 194 189 182 196 191 196 202 210 223 224 248